カタログに戻る

FENGYUN 1C DEB

運用中PO
NORAD 30893·DEBRIS·🇨🇳 China

打ち上げ May 10, 1999 から Taiyuan Satellite Launch Center

Loading…

次のパス (今後24時間)

TLE

経年Source: Space-Track

元期: Sep 3, 2026, 06:41 UTC

1 30893U 99025AYF 26246.27849876  .00000697  00000-0  36792-3 0  9991
2 30893  98.2441 250.7818 0308324  71.3749 304.4290 13.94751674985725

AllMySatでFENGYUN 1C DEBをリアルタイム追跡

Download on the App Store